HAZ282 ZBAD-ZSHC

Flight info

Callsign HAZ282
Flight time N/A
Altitude 38100
Route ELKUR4K ELKUR W40 DOXAB/K0896S1130 W40 YQG/K0896S1160 W142 DALIM/K0898S1130 A593 DPX A470 OF W95 SAPIN A470 IGRAT IGRAT91
Aircraft B77L/H-SDE1E2E3FGHIJ2J3J4J5M1RWXY/LB1D1

Departure

Time 2026-04-29 12:17
Airport Beijing Daxing International Airport (ZBAD)

Arrival

Time N/A
Airport Hangzhou Xiaoshan International Airport (ZSHC)
Time Latitude Longitude Altitude Speed Heading
2026-04-29 12:02 39.50459 116.40360 90 ft 0 kts 232°
2026-04-29 12:04 39.50469 116.40379 94 ft 4 kts 232°
2026-04-29 12:04 39.50486 116.40406 90 ft 3 kts 232°
2026-04-29 12:04 39.50498 116.40431 94 ft 4 kts 266°
2026-04-29 12:04 39.50489 116.40455 92 ft 4 kts 325°
2026-04-29 12:05 39.50476 116.40468 91 ft 1 kts 323°
2026-04-29 12:08 39.50481 116.40462 92 ft 0 kts 323°
2026-04-29 12:11 39.50506 116.40438 93 ft 12 kts 323°
2026-04-29 12:11 39.50560 116.40385 99 ft 11 kts 323°
2026-04-29 12:11 39.50698 116.40264 93 ft 30 kts 328°
2026-04-29 12:11 39.50794 116.40219 92 ft 8 kts 355°
2026-04-29 12:12 39.50842 116.40197 94 ft 8 kts 305°
2026-04-29 12:12 39.50845 116.40100 91 ft 15 kts 264°
2026-04-29 12:12 39.50877 116.39986 93 ft 15 kts 340°
2026-04-29 12:12 39.50966 116.39970 94 ft 8 kts 354°
2026-04-29 12:13 39.51023 116.39961 94 ft 8 kts 354°
2026-04-29 12:13 39.51080 116.39953 94 ft 8 kts 354°
2026-04-29 12:13 39.51139 116.39945 94 ft 9 kts 354°
2026-04-29 12:13 39.51239 116.39929 94 ft 19 kts 351°
2026-04-29 12:14 39.51367 116.39904 94 ft 19 kts 354°
2026-04-29 12:14 39.51496 116.39886 94 ft 19 kts 354°
2026-04-29 12:14 39.51625 116.39868 95 ft 19 kts 351°
2026-04-29 12:14 39.51710 116.39802 97 ft 6 kts 263°
2026-04-29 12:15 39.51710 116.39801 97 ft 0 kts 261°
2026-04-29 12:15 39.51688 116.39707 103 ft 22 kts 233°
2026-04-29 12:16 39.51505 116.39662 103 ft 39 kts 172°
2026-04-29 12:16 39.51134 116.39725 101 ft 67 kts 174°
2026-04-29 12:16 39.50529 116.39801 102 ft 130 kts 170°
2026-04-29 12:16 39.49340 116.39993 535 ft 195 kts 175°
2026-04-29 12:17 39.47978 116.40184 1779 ft 187 kts 176°
2026-04-29 12:17 39.46646 116.40382 2560 ft 207 kts 175°
2026-04-29 12:17 39.45096 116.40616 2819 ft 235 kts 175°
2026-04-29 12:17 39.43432 116.40870 3367 ft 247 kts 174°
2026-04-29 12:18 39.41682 116.41141 3921 ft 260 kts 174°
2026-04-29 12:18 39.39870 116.41427 4685 ft 271 kts 173°
2026-04-29 12:18 39.37952 116.41737 5783 ft 275 kts 170°
2026-04-29 12:18 39.36145 116.42605 6588 ft 284 kts 141°
2026-04-29 12:19 39.34924 116.44557 7660 ft 279 kts 110°
2026-04-29 12:19 39.34581 116.46983 8788 ft 275 kts 85°
2026-04-29 12:19 39.34790 116.49450 9713 ft 280 kts 81°
2026-04-29 12:19 39.35038 116.51943 10572 ft 290 kts 81°
2026-04-29 12:20 39.35305 116.54637 10986 ft 318 kts 81°
2026-04-29 12:20 39.35547 116.57617 11222 ft 349 kts 86°
2026-04-29 12:20 39.35448 116.60854 11824 ft 368 kts 93°
2026-04-29 12:20 39.35186 116.64177 12801 ft 375 kts 94°
2026-04-29 12:21 39.34999 116.66448 13562 ft 377 kts 94°
2026-04-29 12:21 39.34680 116.70933 14920 ft 381 kts 93°
2026-04-29 12:21 39.34471 116.74364 15886 ft 385 kts 92°
2026-04-29 12:21 39.34333 116.76702 16495 ft 388 kts 93°
2026-04-29 12:22 39.33824 116.80087 17148 ft 397 kts 109°
2026-04-29 12:22 39.32360 116.83158 17953 ft 410 kts 129°
2026-04-29 12:22 39.30182 116.85576 18821 ft 419 kts 146°
2026-04-29 12:22 39.27527 116.87154 19593 ft 423 kts 156°
2026-04-29 12:23 39.24710 116.88500 20316 ft 429 kts 156°
2026-04-29 12:23 39.21925 116.89825 21094 ft 433 kts 156°
2026-04-29 12:23 39.19097 116.91200 21904 ft 436 kts 155°
2026-04-29 12:23 39.16258 116.92617 22686 ft 440 kts 155°
2026-04-29 12:24 39.13395 116.94061 23457 ft 444 kts 155°
2026-04-29 12:24 39.10507 116.95520 24096 ft 449 kts 155°
2026-04-29 12:24 39.07585 116.96992 24735 ft 452 kts 155°
2026-04-29 12:24 39.04646 116.98469 25384 ft 455 kts 155°
2026-04-29 12:25 39.01682 116.99957 26001 ft 459 kts 155°
2026-04-29 12:25 38.98698 117.01454 26616 ft 462 kts 155°
2026-04-29 12:25 38.92662 117.04479 27792 ft 469 kts 155°
2026-04-29 12:26 38.89564 117.05818 28229 ft 476 kts 166°
2026-04-29 12:26 38.86222 117.06045 28611 ft 489 kts 185°
2026-04-29 12:26 38.82923 117.04891 29160 ft 497 kts 202°
2026-04-29 12:26 38.79984 117.02532 29758 ft 502 kts 218°
2026-04-29 12:27 38.77580 116.99280 30318 ft 505 kts 234°
2026-04-29 12:27 38.75887 116.95371 30872 ft 500 kts 243°
2026-04-29 12:27 38.74339 116.91394 31568 ft 494 kts 243°
2026-04-29 12:27 38.72817 116.87557 32933 ft 472 kts 242°
2026-04-29 12:28 38.71319 116.83887 34023 ft 462 kts 242°
2026-04-29 12:28 38.69798 116.80244 34339 ft 466 kts 241°
2026-04-29 12:28 38.68250 116.76577 34530 ft 471 kts 241°
2026-04-29 12:28 38.66671 116.72911 34856 ft 468 kts 238°
2026-04-29 12:29 38.64592 116.69711 35157 ft 470 kts 221°
2026-04-29 12:29 38.61882 116.67398 35552 ft 470 kts 207°
2026-04-29 12:29 38.58842 116.65881 36003 ft 470 kts 196°
2026-04-29 12:29 38.55614 116.65296 36413 ft 469 kts 187°
2026-04-29 12:30 38.52351 116.65004 36689 ft 471 kts 186°
2026-04-29 12:30 38.49073 116.64719 36995 ft 472 kts 187°
2026-04-29 12:30 38.45803 116.64401 37367 ft 471 kts 187°
2026-04-29 12:30 38.42541 116.64048 37737 ft 470 kts 188°
2026-04-29 12:31 38.39282 116.63673 38075 ft 469 kts 188°
2026-04-29 12:31 38.32730 116.63014 38190 ft 473 kts 184°
2026-04-29 12:32 38.26170 116.63743 38201 ft 474 kts 173°
2026-04-29 12:32 38.19781 116.65868 38208 ft 475 kts 167°
2026-04-29 12:33 38.13468 116.68295 38195 ft 473 kts 168°
2026-04-29 12:33 38.07149 116.70651 38202 ft 473 kts 167°
2026-04-29 12:34 38.00837 116.73063 38200 ft 474 kts 167°
2026-04-29 12:34 37.94510 116.75487 38213 ft 475 kts 167°
2026-04-29 12:35 37.88214 116.77889 38213 ft 476 kts 167°
2026-04-29 12:35 37.81860 116.80303 38216 ft 477 kts 167°
2026-04-29 12:36 37.75489 116.82719 38218 ft 478 kts 167°
2026-04-29 12:36 37.69112 116.85134 38204 ft 478 kts 168°
2026-04-29 12:37 37.62735 116.87545 38209 ft 478 kts 168°
2026-04-29 12:37 37.56371 116.89946 38217 ft 477 kts 168°
2026-04-29 12:38 37.50012 116.92339 38220 ft 476 kts 168°
2026-04-29 12:38 37.43666 116.94726 38213 ft 475 kts 169°
2026-04-29 12:39 37.37338 116.97101 38221 ft 474 kts 169°
2026-04-29 12:39 37.31010 116.99471 38226 ft 474 kts 169°
2026-04-29 12:40 37.24753 117.02192 38214 ft 477 kts 165°
2026-04-29 12:40 37.18541 117.05118 38223 ft 477 kts 165°
2026-04-29 12:41 37.12325 117.08032 38230 ft 477 kts 165°
2026-04-29 12:41 37.06096 117.10943 38228 ft 478 kts 165°
2026-04-29 12:42 36.99862 117.13851 38232 ft 478 kts 165°
2026-04-29 12:42 36.93626 117.16756 38232 ft 479 kts 166°
2026-04-29 12:43 36.87378 117.19631 38230 ft 476 kts 169°
2026-04-29 12:43 36.80986 117.21328 38238 ft 466 kts 179°
2026-04-29 12:44 36.74614 117.21630 38207 ft 459 kts 187°
2026-04-29 12:44 36.70963 117.21566 38225 ft 459 kts 187°